CZ-2D DEB, 44612

Orbit data source: Space-Track

CZ-2D DEB, 44612 is space debris in SSO originally from a launch on Mon, 09 Oct 2017 UTC launched from the Jiuquan Satellite Launch Center, China (JSC). Debris objects in space refer to the collection of defunct objects orbiting the Earth. Examples of debris include non-operational satellites, rocket bodies, and fragments generated from explosions, collisions, or faulty payload assembly.

Loading next visibility...
Identifier
44612, 2017-060E
Orbit
SSO
Country
Flag of CNCN / PRC
Related business
Manufacturer
Unknown
Mission
Spacecraft
Bus & Motor
Unknown
Mass
Unknown
Launch date (UTC)
2017-10-09 (8 years ago)
Launch vehicle
Unknown
Launch site
Jiuquan Satellite Launch Center, China (JSC)
Object type
Payload
Rocket body
Debris
Shape & HBR
Unknown
Radar Cross Section
Small (<0.1 m²)

Expand to show TLE details & history
Last TLE update: 2 days ago

TLE from 2 days ago
0 CZ-2D DEB
1 44612U 17060E   25258.26458861  .00006310  00000-0  63805-3 0  9998
2 44612  97.5951 266.7442 0009175 297.3944  62.6341 14.91306401425862
Epoch: 2025-09-15T06:21Z
TLE epoch observation values (Epoch: 2025-09-15T06:21:00.455Z)
Latitude
-0.00006°
Longitude
177.02058°
Altitude
593.97 km
Speed
7.565 km/s
True Right ascension
17h 46m 58s
True Declination
0° 00' 00"
Sunlit
Object was in daylight at epoch
Visualization orbit readout
Latitude
Unknown
Longitude
Unknown
Altitude
Unknown
Speed
Unknown
Apparent Right ascension
Unknown
Apparent Declination
Unknown
Sunlit
N/A
Visualization observer readout
Local Sidereal Time
17:46:49
Azimuth
Unknown
Elevation
Unknown
Doppler factor
Unknown
Orbital elements
Apogee altitude
597.267 km
Perigee altitude
584.479 km
Semi-major axis
6,969.01 km
Eccentricity
0.00092
Inclination
97.5951°
RAAN
266.7442°
Arg. of periapsis
297.3944°
True anomaly
62.72752°
Mean anomaly
62.6341°
Eccentric anomaly
62.68081°
Mean motion
3.73067 °/min
Orbital period
96.5 mins
BSTAR
0.00063805
Loading maneuver chart data...
Computing Atmospheric mass density...
Loading historical data...
Loading historical data...
Loading historical data...
Loading historical data...
Loading historical data...
Loading historical data...
Loading historical data...
Other satellites on launch #60 in the year 2017 (2017-10-09 UTC)

Documentation

Showing up to 5 results
|